Find STARLINK-37797

NORAD ID: 799501229 Int'l Des: 2026-161AA Constellation: starlink operational

当前视图

正在加载3D地球...

About STARLINK-37797

STARLINK-37797 (NORAD 799501229) is a starlink constellation satellite launched Jul 14, 2026

关于 STARLINK-37797

正在加载描述...

即将过境

Passes for default location (London). Set your location on the main map for personalized predictions.

高度历史

Loading altitude history...

两行轨道根数

1 99999C 2026161AA 26195.68173610 .00614750 00000-0 594210-4 0 1959
2 99999 53.1640 325.3441 0009347 281.8532 33.3470 16.10491753 18
Epoch: Jul 14, 2026 • Age: 7 hours